Location: Sun City Center
(27.6996°N, 82.3528°W)
Time: 15:23:45
(UTC-04:00)

Envisat - Visible Passes

Search period start: 26 April 2018 00:00
Search period end: 06 May 2018 00:00
Orbit: 764 x 766 km, 98.2° (Epoch: 26 April)

Date Brightness Start Highest point End Pass type
(mag) Time Alt. Az. Time Alt. Az. Time Alt. Az.
26 Apr 5.2 21:57:43 10° SSW 22:01:35 22° W 22:05:28 10° NW visible
27 Apr 3.6 21:19:48 10° S 21:24:45 56° W 21:29:45 10° NNW visible
28 Apr 3.1 20:43:08 10° SSE 20:48:06 57° ENE 20:53:03 10° N visible
28 Apr 5.8 22:26:06 10° WSW 22:27:20 11° W 22:28:32 10° W visible
29 Apr 4.8 21:46:03 10° SSW 21:50:23 29° W 21:54:45 10° NW visible
30 Apr 3.2 21:08:33 10° S 21:13:37 74° WSW 21:18:41 10° NNW visible
01 May 3.4 20:32:13 10° SE 20:37:00 43° ENE 20:41:46 10° N visible
01 May 5.6 22:13:18 10° SW 22:16:05 15° W 22:18:54 10° WNW visible
02 May 4.3 21:34:32 10° SSW 21:39:12 37° W 21:43:54 10° NNW visible
03 May 2.9 20:57:24 10° SSE 21:02:29 84° ENE 21:07:34 10° N visible
04 May 5.3 22:01:16 10° SW 22:04:53 20° W 22:08:31 10° NW visible
05 May 3.8 21:23:08 10° S 21:28:03 50° W 21:32:58 10° NNW visible
